Location: Bezawada
(16.5136°N, 80.6297°E)
Time: 23:02:30
(UTC+00:00)

Sich 1 - Pass Details

Date: 27 February 2020
Orbit: 595 x 624 km, 82.5° (Epoch: 05 April)

Event Time Altitude Azimuth Distance (km) Brightness Sun altitude
Rises 23:36:18 0° 353° (N) 2,856 6.4 -20.0°
Reaches altitude 10° 23:38:30 10° 351° (N) 1,957 5.5 -19.4°
Maximum altitude 23:42:49 76° 267° (W) 634 2.9 -18.4°
Drops below altitude 10° 23:47:11 10° 181° (S) 1,971 5.7 -17.4°
Sets 23:49:25 0° 179° (S) 2,879 6.5 -16.8°
